Location: T�chigga el Be�da
(16.4766°N, 9.3887°W)
Time: 06:24:00
(UTC+00:00)

Delta 198 - Pass Details

Date: 27 February 2020
Orbit: 458 x 1020 km, 24.8° (Epoch: 07 April)

Event Time Altitude Azimuth Distance (km) Brightness Sun altitude
Rises 20:06:00 0° 287° (WNW) 3,585 8.7 -20.4°
Reaches altitude 10° 20:08:50 10° 284° (WNW) 2,567 7.8 -21.1°
Maximum altitude 20:14:56 63° 204° (SSW) 887 4.3 -22.5°
Enters shadow 20:16:44 41° 141° (SE) 1,106 4.5 -23.0°
